Location: Carrizalito
(10.3833°N, 67.0217°W)
Time: 22:08:30
(UTC+00:00)

Meteor 1-11 Rocket - Pass Details

Date: 06 July 2022
Orbit: 830 x 916 km, 81.2° (Epoch: 16 August)

Event Time Altitude Azimuth Distance (km) Brightness Sun altitude
Exits shadow 07:15:23 17° 111° (ESE) 2,166 6.0 -38.3°
Maximum altitude 07:16:54 18° 92° (E) 2,076 6.1 -38.0°
Drops below altitude 10° 07:20:47 10° 51° (NE) 2,596 7.0 -37.2°
Sets 07:24:01 0° 33° (NNE) 3,529 7.8 -36.6°
